CZ-6A DEB, 55900

Orbit data source: Space-Track

CZ-6A DEB, 55900 is space debris in SSO originally from a launch on Fri, 11 Nov 2022 UTC launched from the Taiyaun Space Center, China (TSC). Debris objects in space refer to the collection of defunct objects orbiting the Earth. Examples of debris include non-operational satellites, rocket bodies, and fragments generated from explosions, collisions, or faulty payload assembly.

Loading next visibility...
Identifier
55900, 2022-151AAY
Orbit
SSO
Country
Flag of CNCN / PRC
Related business
Manufacturer
SAST
Mission
Spacecraft
Bus & Motor
Unknown
Mass
Unknown
Launch date (UTC)
2022-11-11 (3 years ago)
Launch vehicle
Unknown
Launch site
Taiyaun Space Center, China (TSC)
Object type
Payload
Rocket body
Debris
Shape & HBR
Unknown shape, 0.1 m
Radar Cross Section
Small (<0.1 m²)

Expand to show TLE details & history
Last TLE update: 4 days ago

TLE from 4 days ago
0 CZ-6A DEB
1 55900U 22151AAY 25348.97873708  .00001574  00000-0  74349-3 0  9998
2 55900  98.7699 355.5904 0036736 144.6961 215.6660 14.20835497153464
Epoch: 2025-12-14T23:29Z
TLE epoch observation values (Epoch: 2025-12-14T23:29:22.883Z)
Latitude
0.00006°
Longitude
-80.63885°
Altitude
846.97 km
Speed
7.418 km/s
True Right ascension
23h 42m 21s
True Declination
0° 00' 00"
Sunlit
Object was in daylight at epoch
Visualization orbit readout
Latitude
Unknown
Longitude
Unknown
Altitude
Unknown
Speed
Unknown
Apparent Right ascension
Unknown
Apparent Declination
Unknown
Sunlit
N/A
Visualization observer readout
Local Sidereal Time
22:22:05
Azimuth
Unknown
Elevation
Unknown
Doppler factor
Unknown
Orbital elements
Apogee altitude
846.131 km
Perigee altitude
793.247 km
Semi-major axis
7,197.826 km
Eccentricity
0.00367
Inclination
98.7699°
RAAN
355.5904°
Arg. of periapsis
144.6961°
True anomaly
215.42147°
Mean anomaly
215.666°
Eccentric anomaly
215.54364°
Mean motion
3.55419 °/min
Orbital period
101.29 mins
BSTAR
0.00074349
Loading maneuver chart data...
Computing Atmospheric mass density...
Loading historical data...
Loading historical data...
Loading historical data...
Loading historical data...
Loading historical data...
Loading historical data...
Loading historical data...

Documentation

Showing up to 5 results
|